Data No.,UTC Date,UTC Time,Latitude,Longitude,Course(deg),Temp(degC),Sal(psu)
21,2014/3/9,3:13:00,20-10.0500N,114-12.6100E,88,24.139,33.4682
22,2014/3/9,3:14:00,20-10.0600N,114-12.7800E,89,24.142,33.466
23,2014/3/9,3:15:00,20-10.0600N,114-12.9500E,88,24.144,33.4625
24,2014/3/9,3:16:00,20-10.0700N,114-13.1200E,86,24.145,33.4545
25,2014/3/9,3:17:00,20-10.0700N,114-13.2900E,90,24.147,33.4472
26,2014/3/9,3:18:00,20-10.0500N,114-13.4700E,97,24.15,33.4411
27,2014/3/9,3:19:00,20-10.0500N,114-13.6300E,87,24.15,33.4391
28,2014/3/9,3:20:00,20-10.0500N,114-13.8100E,92,24.15,33.4415
29,2014/3/9,3:21:00,20-10.0400N,114-13.9700E,93,24.146,33.4428
30,2014/3/9,3:22:00,20-10.0400N,114-14.1300E,91,24.145,33.4426
31,2014/3/9,3:23:00,20-10.0400N,114-14.2900E,92,24.144,33.4424
32,2014/3/9,3:24:00,20-10.0400N,114-14.4500E,91,24.142,33.4423
33,2014/3/9,3:25:00,20-10.0300N,114-14.6100E,92,24.137,33.4424
34,2014/3/9,3:26:00,20-10.0300N,114-14.7800E,90,24.134,33.4411
35,2014/3/9,3:27:00,20-10.0300N,114-14.9400E,92,24.129,33.4393
36,2014/3/9,3:28:00,20-10.0300N,114-15.1100E,92,24.128,33.4363
37,2014/3/9,3:29:00,20-10.0200N,114-15.2700E,94,24.128,33.4343
38,2014/3/9,3:30:00,20-10.0100N,114-15.4400E,92,24.127,33.4311
39,2014/3/9,3:31:00,20-10.0000N,114-15.6000E,92,24.126,33.4293
40,2014/3/9,3:32:00,20-09.9900N,114-15.7700E,93,24.124,33.4284
41,2014/3/9,3:33:00,20-09.9800N,114-15.9300E,93,24.118,33.4291
42,2014/3/9,3:34:00,20-09.9800N,114-16.1000E,92,24.113,33.4317
43,2014/3/9,3:35:00,20-09.9700N,114-16.2600E,92,24.112,33.4379
44,2014/3/9,3:36:00,20-09.9600N,114-16.4300E,94,24.117,33.4434
45,2014/3/9,3:37:00,20-09.9500N,114-16.6100E,93,24.122,33.4455
46,2014/3/9,3:38:00,20-09.9500N,114-16.7700E,89,24.123,33.4434
47,2014/3/9,3:39:00,20-09.9500N,114-16.9400E,92,24.125,33.4409
48,2014/3/9,3:40:00,20-09.9400N,114-17.1100E,91,24.132,33.4424
49,2014/3/9,3:41:00,20-09.9400N,114-17.2700E,91,24.138,33.4433
50,2014/3/9,3:42:00,20-09.9400N,114-17.4400E,91,24.143,33.4401
51,2014/3/9,3:43:00,20-09.9300N,114-17.6000E,89,24.148,33.4381
52,2014/3/9,3:44:00,20-09.9300N,114-17.7700E,93,24.154,33.4365
53,2014/3/9,3:45:00,20-09.9300N,114-17.9300E,91,24.161,33.4336
54,2014/3/9,3:46:00,20-09.9200N,114-18.1000E,90,24.166,33.4297
55,2014/3/9,3:47:00,20-09.9200N,114-18.2600E,92,24.172,33.4285
56,2014/3/9,3:48:00,20-09.9100N,114-18.4200E,95,24.179,33.4277
57,2014/3/9,3:49:00,20-09.9000N,114-18.5800E,92,24.181,33.4258
58,2014/3/9,3:50:00,20-09.9000N,114-18.7400E,90,24.185,33.4227
59,2014/3/9,3:51:00,20-09.8900N,114-18.9200E,92,24.187,33.4223
60,2014/3/9,3:52:00,20-09.8900N,114-19.0800E,91,24.191,33.4219
61,2014/3/9,3:53:00,20-09.8900N,114-19.2400E,89,24.194,33.4214
62,2014/3/9,3:54:00,20-09.8900N,114-19.4000E,91,24.198,33.4212
63,2014/3/9,3:55:00,20-09.9000N,114-19.5400E,87,24.2,33.4213
64,2014/3/9,3:56:00,20-09.9000N,114-19.7100E,89,24.202,33.4209
65,2014/3/9,3:57:00,20-09.9000N,114-19.8800E,87,24.204,33.4204
66,2014/3/9,3:58:00,20-09.9100N,114-20.0500E,88,24.207,33.4206
67,2014/3/9,3:59:00,20-09.9100N,114-20.2100E,88,24.208,33.4199
68,2014/3/9,4:00:00,20-09.9100N,114-20.3800E,88,24.209,33.4191
69,2014/3/9,4:01:00,20-09.9200N,114-20.5500E,89,24.209,33.4193
70,2014/3/9,4:02:00,20-09.9200N,114-20.7300E,89,24.211,33.4196
71,2014/3/9,4:03:00,20-09.9300N,114-20.9000E,88,24.214,33.4185
72,2014/3/9,4:04:00,20-09.9300N,114-21.0800E,90,24.217,33.4168
73,2014/3/9,4:05:00,20-09.9300N,114-21.2500E,89,24.218,33.4153
74,2014/3/9,4:06:00,20-09.9400N,114-21.4200E,88,24.218,33.4134
75,2014/3/9,4:07:00,20-09.9400N,114-21.5900E,89,24.218,33.4124
76,2014/3/9,4:08:00,20-09.9400N,114-21.7600E,88,24.217,33.4108
77,2014/3/9,4:09:00,20-09.9400N,114-21.9300E,90,24.22,33.409
78,2014/3/9,4:10:00,20-09.9500N,114-22.0900E,88,24.222,33.4074
79,2014/3/9,4:11:00,20-09.9500N,114-22.2600E,90,24.222,33.4042
80,2014/3/9,4:12:00,20-09.9500N,114-22.4300E,87,24.221,33.4008
81,2014/3/9,4:13:00,20-09.9500N,114-22.5900E,91,24.221,33.4
82,2014/3/9,4:14:00,20-09.9500N,114-22.7500E,88,24.221,33.3986
83,2014/3/9,4:15:00,20-09.9500N,114-22.9200E,89,24.222,33.3973
84,2014/3/9,4:16:00,20-09.9500N,114-23.0800E,91,24.221,33.3956
85,2014/3/9,4:17:00,20-09.9500N,114-23.2500E,91,24.218,33.3959
86,2014/3/9,4:18:00,20-09.9500N,114-23.4200E,91,24.216,33.3974
87,2014/3/9,4:19:00,20-09.9400N,114-23.5800E,92,24.215,33.4005
88,2014/3/9,4:20:00,20-09.9400N,114-23.7500E,89,24.217,33.4017
89,2014/3/9,4:21:00,20-09.9400N,114-23.9200E,91,24.218,33.4004
90,2014/3/9,4:22:00,20-09.9500N,114-24.0800E,86,24.219,33.3992
91,2014/3/9,4:23:00,20-09.9600N,114-24.2400E,85,24.223,33.3992
92,2014/3/9,4:24:00,20-09.9600N,114-24.4000E,89,24.228,33.3983
93,2014/3/9,4:25:00,20-09.9700N,114-24.5700E,89,24.232,33.3953
94,2014/3/9,4:26:00,20-09.9700N,114-24.7400E,89,24.236,33.3926
95,2014/3/9,4:27:00,20-09.9800N,114-24.9000E,86,24.24,33.3901
96,2014/3/9,4:28:00,20-09.9900N,114-25.0600E,87,24.243,33.3888
97,2014/3/9,4:29:00,20-09.9800N,114-25.2200E,90,24.243,33.387
98,2014/3/9,4:30:00,20-09.9900N,114-25.3800E,88,24.244,33.3858
99,2014/3/9,4:31:00,20-10.0000N,114-25.5400E,87,24.245,33.3853
100,2014/3/9,4:32:00,20-10.0000N,114-25.7100E,91,24.247,33.3859
101,2014/3/9,4:33:00,20-10.0000N,114-25.8800E,89,24.25,33.3862
102,2014/3/9,4:34:00,20-10.0000N,114-26.0500E,88,24.253,33.3858
103,2014/3/9,4:35:00,20-10.0100N,114-26.2200E,88,24.254,33.3854
104,2014/3/9,4:36:00,20-10.0100N,114-26.3900E,89,24.254,33.3844
105,2014/3/9,4:37:00,20-10.0100N,114-26.5600E,89,24.256,33.3837
106,2014/3/9,4:38:00,20-10.0100N,114-26.7200E,89,24.258,33.3833
107,2014/3/9,4:39:00,20-10.0200N,114-26.9000E,88,24.26,33.3853
108,2014/3/9,4:40:00,20-10.0200N,114-27.0700E,89,24.263,33.3846
109,2014/3/9,4:41:00,20-10.0300N,114-27.2400E,87,24.264,33.3852
110,2014/3/9,4:42:00,20-10.0300N,114-27.4200E,90,24.265,33.3856
111,2014/3/9,4:43:00,20-10.0300N,114-27.5900E,89,24.267,33.3857
112,2014/3/9,4:44:00,20-10.0300N,114-27.7700E,89,24.27,33.3862
113,2014/3/9,4:45:00,20-10.0300N,114-27.9400E,92,24.272,33.3861
114,2014/3/9,4:46:00,20-10.0300N,114-28.1100E,88,24.271,33.3867
115,2014/3/9,4:47:00,20-10.0300N,114-28.2900E,91,24.271,33.3864
116,2014/3/9,4:48:00,20-10.0300N,114-28.4500E,89,24.271,33.3874
117,2014/3/9,4:49:00,20-10.0300N,114-28.6200E,88,24.272,33.3882
118,2014/3/9,4:50:00,20-10.0300N,114-28.7900E,91,24.273,33.3898
119,2014/3/9,4:51:00,20-10.0400N,114-28.9600E,87,24.275,33.3905
120,2014/3/9,4:52:00,20-10.0400N,114-29.1400E,90,24.276,33.3913
121,2014/3/9,4:53:00,20-10.0400N,114-29.3100E,89,24.276,33.3923
122,2014/3/9,4:54:00,20-10.0400N,114-29.4800E,89,24.277,33.3944
123,2014/3/9,4:55:00,20-10.0400N,114-29.6500E,91,24.279,33.398
124,2014/3/9,4:56:00,20-10.0400N,114-29.8300E,90,24.281,33.3989
125,2014/3/9,4:57:00,20-10.0400N,114-30.0000E,89,24.282,33.4021
126,2014/3/9,4:58:00,20-10.0400N,114-30.1800E,88,24.284,33.4053
127,2014/3/9,4:59:00,20-10.0400N,114-30.3500E,90,24.284,33.407
128,2014/3/9,5:00:00,20-10.0400N,114-30.5200E,91,24.284,33.4123
129,2014/3/9,5:01:00,20-10.0400N,114-30.7000E,91,24.286,33.4145
130,2014/3/9,5:02:00,20-10.0300N,114-30.8700E,90,24.289,33.4171
131,2014/3/9,5:03:00,20-10.0400N,114-31.0500E,89,24.293,33.4184
132,2014/3/9,5:04:00,20-10.0300N,114-31.2300E,91,24.297,33.4187
133,2014/3/9,5:05:00,20-10.0300N,114-31.4000E,90,24.299,33.4192
134,2014/3/9,5:06:00,20-10.0300N,114-31.5800E,90,24.301,33.4207
135,2014/3/9,5:07:00,20-10.0200N,114-31.7600E,92,24.303,33.4214
136,2014/3/9,5:08:00,20-10.0200N,114-31.9200E,91,24.303,33.422
137,2014/3/9,5:09:00,20-10.0100N,114-32.0800E,92,24.305,33.423
138,2014/3/9,5:10:00,20-10.0000N,114-32.2500E,92,24.306,33.4248
139,2014/3/9,5:11:00,20-10.0000N,114-32.4300E,89,24.305,33.4262
140,2014/3/9,5:12:00,20-10.0000N,114-32.6000E,91,24.305,33.4302
141,2014/3/9,5:13:00,20-10.0000N,114-32.7800E,90,24.306,33.4334
142,2014/3/9,5:14:00,20-09.9900N,114-32.9400E,88,24.308,33.4346
143,2014/3/9,5:15:00,20-10.0000N,114-33.1100E,90,24.31,33.436
144,2014/3/9,5:16:00,20-10.0000N,114-33.3100E,89,24.31,33.438
145,2014/3/9,5:17:00,20-10.0100N,114-33.4900E,87,24.312,33.4392
146,2014/3/9,5:18:00,20-10.0100N,114-33.6700E,88,24.314,33.4402
147,2014/3/9,5:19:00,20-10.0100N,114-33.8200E,89,24.315,33.4413
148,2014/3/9,5:20:00,20-10.0000N,114-33.9900E,91,24.317,33.4427
149,2014/3/9,5:21:00,20-10.0000N,114-34.1700E,89,24.319,33.4441
150,2014/3/9,5:22:00,20-10.0200N,114-34.3500E,89,24.319,33.4453
151,2014/3/9,5:23:00,20-10.0100N,114-34.5200E,90,24.317,33.4485
152,2014/3/9,5:24:00,20-10.0100N,114-34.7000E,87,24.316,33.4521
153,2014/3/9,5:25:00,20-10.0100N,114-34.8700E,90,24.315,33.4545
154,2014/3/9,5:26:00,20-10.0100N,114-35.0400E,87,24.316,33.4567
155,2014/3/9,5:27:00,20-10.0100N,114-35.2200E,89,24.32,33.4613
156,2014/3/9,5:28:00,20-10.0100N,114-35.3900E,89,24.322,33.4635
157,2014/3/9,5:29:00,20-10.0200N,114-35.5700E,89,24.323,33.4666
158,2014/3/9,5:30:00,20-10.0200N,114-35.7500E,88,24.326,33.4689
159,2014/3/9,5:31:00,20-10.0200N,114-35.9200E,88,24.33,33.4701
160,2014/3/9,5:32:00,20-10.0200N,114-36.1000E,89,24.333,33.4687
161,2014/3/9,5:33:00,20-10.0200N,114-36.2800E,88,24.335,33.4678
162,2014/3/9,5:34:00,20-10.0300N,114-36.4500E,90,24.335,33.4687
163,2014/3/9,5:35:00,20-10.0200N,114-36.6300E,91,24.335,33.4714
164,2014/3/9,5:36:00,20-10.0300N,114-36.8000E,88,24.336,33.4743
165,2014/3/9,5:37:00,20-10.0300N,114-36.9800E,88,24.336,33.477
166,2014/3/9,5:38:00,20-10.0300N,114-37.1600E,88,24.336,33.4778
167,2014/3/9,5:39:00,20-10.0300N,114-37.3300E,89,24.337,33.4796
168,2014/3/9,5:40:00,20-10.0300N,114-37.5100E,90,24.336,33.4836
169,2014/3/9,5:41:00,20-10.0300N,114-37.6900E,90,24.336,33.4865
170,2014/3/9,5:42:00,20-10.0400N,114-37.8600E,86,24.336,33.49
171,2014/3/9,5:43:00,20-10.0400N,114-38.0400E,90,24.336,33.4912
172,2014/3/9,5:44:00,20-10.0300N,114-38.2100E,92,24.336,33.4915
173,2014/3/9,5:45:00,20-10.0400N,114-38.3900E,88,24.336,33.4919
174,2014/3/9,5:46:00,20-10.0400N,114-38.5700E,90,24.336,33.4919
175,2014/3/9,5:47:00,20-10.0300N,114-38.7500E,91,24.335,33.492
176,2014/3/9,5:48:00,20-10.0300N,114-38.9200E,89,24.336,33.4934
177,2014/3/9,5:49:00,20-10.0400N,114-39.1000E,88,24.336,33.4931
178,2014/3/9,5:50:00,20-10.0500N,114-39.2800E,87,24.337,33.494
179,2014/3/9,5:51:00,20-10.0400N,114-39.4800E,91,24.337,33.4947
180,2014/3/9,5:52:00,20-10.0500N,114-39.6600E,89,24.338,33.4967
181,2014/3/9,5:53:00,20-10.0500N,114-39.8400E,92,24.34,33.4969
182,2014/3/9,5:54:00,20-10.0500N,114-40.0200E,93,24.342,33.4975
183,2014/3/9,5:55:00,20-10.0600N,114-40.1700E,88,24.345,33.499
184,2014/3/9,5:56:00,20-10.0600N,114-40.3500E,90,24.348,33.4989
185,2014/3/9,5:57:00,20-10.0600N,114-40.5300E,90,24.349,33.4994
186,2014/3/9,5:58:00,20-10.0600N,114-40.7400E,92,24.349,33.4995
187,2014/3/9,5:59:00,20-10.0600N,114-40.8900E,88,24.35,33.5
188,2014/3/9,6:00:00,20-10.0600N,114-41.0600E,90,24.351,33.5001
189,2014/3/9,6:01:00,20-10.0600N,114-41.2400E,88,24.352,33.5017
190,2014/3/9,6:02:00,20-10.0500N,114-41.4100E,87,24.351,33.5031
191,2014/3/9,6:03:00,20-10.0600N,114-41.5900E,89,24.353,33.5082
192,2014/3/9,6:04:00,20-10.0700N,114-41.7600E,89,24.355,33.5083
193,2014/3/9,6:05:00,20-10.0700N,114-41.9400E,91,24.358,33.5082
194,2014/3/9,6:06:00,20-10.0700N,114-42.1200E,89,24.361,33.5091
195,2014/3/9,6:07:00,20-10.0700N,114-42.2900E,89,24.364,33.5096
196,2014/3/9,6:08:00,20-10.0700N,114-42.4600E,89,24.366,33.5094
197,2014/3/9,6:09:00,20-10.0700N,114-42.6400E,89,24.369,33.5092
198,2014/3/9,6:10:00,20-10.0800N,114-42.8200E,88,24.37,33.5096
199,2014/3/9,6:11:00,20-10.0800N,114-42.9900E,88,24.372,33.5092
200,2014/3/9,6:12:00,20-10.0800N,114-43.1600E,88,24.373,33.5096
201,2014/3/9,6:13:00,20-10.0900N,114-43.3400E,90,24.374,33.5097
202,2014/3/9,6:14:00,20-10.0800N,114-43.5100E,88,24.373,33.5113
203,2014/3/9,6:15:00,20-10.0800N,114-43.6900E,90,24.373,33.512
204,2014/3/9,6:16:00,20-10.0700N,114-43.8600E,90,24.373,33.5126
205,2014/3/9,6:17:00,20-10.0700N,114-44.0300E,88,24.375,33.5131
206,2014/3/9,6:18:00,20-10.0700N,114-44.2100E,90,24.376,33.5132
207,2014/3/9,6:19:00,20-10.0700N,114-44.3800E,92,24.378,33.513
208,2014/3/9,6:20:00,20-10.0600N,114-44.5600E,92,24.381,33.513
209,2014/3/9,6:21:00,20-10.0600N,114-44.7400E,89,24.383,33.5129
210,2014/3/9,6:22:00,20-10.0700N,114-44.9100E,88,24.386,33.5126
211,2014/3/9,6:23:00,20-10.0600N,114-45.0800E,91,24.387,33.5129
212,2014/3/9,6:24:00,20-10.0600N,114-45.2500E,92,24.388,33.5127
213,2014/3/9,6:25:00,20-10.0500N,114-45.4200E,89,24.389,33.5135
214,2014/3/9,6:26:00,20-10.0500N,114-45.6000E,92,24.39,33.5131
215,2014/3/9,6:27:00,20-10.0400N,114-45.7700E,91,24.392,33.5132
216,2014/3/9,6:28:00,20-10.0300N,114-45.9300E,89,24.393,33.5128
217,2014/3/9,6:29:00,20-10.0300N,114-46.1100E,93,24.395,33.5129
218,2014/3/9,6:30:00,20-10.0300N,114-46.3100E,91,24.395,33.5122
219,2014/3/9,6:31:00,20-10.0200N,114-46.4300E,93,24.395,33.5119
220,2014/3/9,6:32:00,20-10.0100N,114-46.6000E,92,24.395,33.5116
221,2014/3/9,6:33:00,20-10.0000N,114-46.7800E,92,24.393,33.512
222,2014/3/9,6:34:00,20-09.9900N,114-46.9600E,92,24.391,33.5123
223,2014/3/9,6:35:00,20-09.9800N,114-47.1300E,95,24.391,33.5129
224,2014/3/9,6:36:00,20-09.9900N,114-47.3100E,89,24.391,33.5134
225,2014/3/9,6:37:00,20-09.9800N,114-47.5100E,93,24.392,33.5131
226,2014/3/9,6:38:00,20-09.9700N,114-47.6900E,93,24.393,33.5135
227,2014/3/9,6:39:00,20-09.9600N,114-47.8700E,93,24.393,33.5136
228,2014/3/9,6:40:00,20-09.9600N,114-48.0500E,92,24.394,33.5137
229,2014/3/9,6:41:00,20-09.9500N,114-48.2300E,93,24.396,33.5139
230,2014/3/9,6:42:00,20-09.9500N,114-48.4100E,92,24.398,33.5139
231,2014/3/9,6:43:00,20-09.9500N,114-48.5900E,90,24.4,33.514
232,2014/3/9,6:44:00,20-09.9400N,114-48.7700E,92,24.399,33.5146
233,2014/3/9,6:45:00,20-09.9400N,114-48.9400E,91,24.401,33.5145
234,2014/3/9,6:46:00,20-09.9400N,114-49.1100E,92,24.401,33.5146
235,2014/3/9,6:47:00,20-09.9300N,114-49.2900E,92,24.401,33.5157
236,2014/3/9,6:48:00,20-09.9300N,114-49.4700E,92,24.401,33.516
237,2014/3/9,6:49:00,20-09.9200N,114-49.6500E,90,24.399,33.5151
238,2014/3/9,6:50:00,20-09.9300N,114-49.8200E,89,24.398,33.5146
239,2014/3/9,6:51:00,20-09.9300N,114-50.0000E,90,24.398,33.5153
240,2014/3/9,6:52:00,20-09.9300N,114-50.1700E,90,24.4,33.5176
241,2014/3/9,6:53:00,20-09.9300N,114-50.3500E,90,24.402,33.5167
242,2014/3/9,6:54:00,20-09.9300N,114-50.5300E,91,24.403,33.5153
243,2014/3/9,6:55:00,20-09.9300N,114-50.7100E,92,24.404,33.5144
244,2014/3/9,6:56:00,20-09.9200N,114-50.8900E,92,24.403,33.5135
245,2014/3/9,6:57:00,20-09.9100N,114-51.0800E,89,24.401,33.5122
246,2014/3/9,6:58:00,20-09.9200N,114-51.2500E,89,24.4,33.512
247,2014/3/9,6:59:00,20-09.9100N,114-51.4300E,91,24.397,33.512
248,2014/3/9,7:00:00,20-09.9100N,114-51.6200E,90,24.396,33.5112
249,2014/3/9,7:01:00,20-09.9100N,114-51.8000E,91,24.393,33.5113
250,2014/3/9,7:02:00,20-09.9100N,114-51.9700E,90,24.391,33.5103
251,2014/3/9,7:03:00,20-09.9100N,114-52.1500E,90,24.39,33.5096
252,2014/3/9,7:04:00,20-09.9100N,114-52.3300E,90,24.39,33.5087
253,2014/3/9,7:05:00,20-09.9100N,114-52.5200E,89,24.388,33.5088
254,2014/3/9,7:06:00,20-09.9000N,114-52.7000E,89,24.386,33.5087
255,2014/3/9,7:07:00,20-09.9000N,114-52.8900E,89,24.385,33.5083
256,2014/3/9,7:08:00,20-09.9000N,114-53.0600E,90,24.385,33.508
257,2014/3/9,7:09:00,20-09.9100N,114-53.2400E,90,24.385,33.507
258,2014/3/9,7:10:00,20-09.9200N,114-53.4200E,91,24.384,33.5069
259,2014/3/9,7:11:00,20-09.9200N,114-53.5900E,91,24.381,33.506
260,2014/3/9,7:12:00,20-09.9200N,114-53.7700E,91,24.378,33.5044
261,2014/3/9,7:13:00,20-09.9200N,114-53.9400E,88,24.375,33.502
262,2014/3/9,7:14:00,20-09.9200N,114-54.1200E,90,24.373,33.5003
263,2014/3/9,7:15:00,20-09.9200N,114-54.3000E,89,24.37,33.4976
264,2014/3/9,7:16:00,20-09.9200N,114-54.4800E,89,24.367,33.4957
265,2014/3/9,7:17:00,20-09.9200N,114-54.6600E,89,24.364,33.4935
266,2014/3/9,7:18:00,20-09.9200N,114-54.8400E,89,24.36,33.4918
267,2014/3/9,7:19:00,20-09.9300N,114-55.0200E,87,24.356,33.4903
268,2014/3/9,7:20:00,20-09.9400N,114-55.2000E,87,24.352,33.4882
269,2014/3/9,7:21:00,20-09.9500N,114-55.3800E,87,24.349,33.4859
270,2014/3/9,7:22:00,20-09.9500N,114-55.5600E,87,24.348,33.4842
271,2014/3/9,7:23:00,20-09.9600N,114-55.7300E,88,24.348,33.4832
272,2014/3/9,7:24:00,20-09.9600N,114-55.9100E,89,24.346,33.4833
273,2014/3/9,7:25:00,20-09.9600N,114-56.0800E,88,24.346,33.4841
274,2014/3/9,7:26:00,20-09.9700N,114-56.2500E,86,24.344,33.4851
275,2014/3/9,7:27:00,20-09.9700N,114-56.4300E,89,24.342,33.4853
276,2014/3/9,7:28:00,20-09.9700N,114-56.6100E,89,24.337,33.4844
277,2014/3/9,7:29:00,20-09.9800N,114-56.7900E,89,24.332,33.4829
278,2014/3/9,7:30:00,20-09.9800N,114-56.9600E,88,24.328,33.4817
279,2014/3/9,7:31:00,20-09.9900N,114-57.1400E,89,24.326,33.4802
280,2014/3/9,7:32:00,20-09.9900N,114-57.3200E,89,24.327,33.4789
281,2014/3/9,7:33:00,20-09.9900N,114-57.5000E,89,24.325,33.4785
282,2014/3/9,7:34:00,20-10.0000N,114-57.6800E,88,24.322,33.4792
283,2014/3/9,7:35:00,20-10.0000N,114-57.8500E,88,24.318,33.4789
284,2014/3/9,7:36:00,20-10.0000N,114-58.0300E,89,24.316,33.4786
285,2014/3/9,7:37:00,20-10.0100N,114-58.2000E,87,24.314,33.4785
286,2014/3/9,7:38:00,20-10.0000N,114-58.3800E,90,24.314,33.4779
287,2014/3/9,7:39:00,20-10.0100N,114-58.5600E,90,24.314,33.4783
288,2014/3/9,7:40:00,20-10.0000N,114-58.7500E,90,24.313,33.4787
289,2014/3/9,7:41:00,20-10.0000N,114-58.9300E,89,24.309,33.4791
290,2014/3/9,7:42:00,20-10.0100N,114-59.1100E,89,24.304,33.4791
291,2014/3/9,7:43:00,20-10.0100N,114-59.2800E,90,24.298,33.4785
292,2014/3/9,7:44:00,20-10.0100N,114-59.4600E,89,24.295,33.476
293,2014/3/9,7:45:00,20-10.0100N,114-59.6400E,89,24.291,33.4737
294,2014/3/9,7:46:00,20-10.0100N,114-59.8200E,89,24.288,33.4722
295,2014/3/9,7:47:00,20-10.0200N,114-59.9900E,88,24.285,33.4722
296,2014/3/9,7:48:00,20-10.0200N,115-00.1700E,88,24.274,33.4722
297,2014/3/9,7:49:00,20-10.0200N,115-00.3500E,90,24.263,33.4725
298,2014/3/9,7:50:00,20-10.0200N,115-00.5200E,89,24.248,33.4703
299,2014/3/9,7:51:00,20-10.0200N,115-00.7000E,90,24.235,33.4668
300,2014/3/9,7:52:00,20-10.0200N,115-00.8800E,89,24.224,33.4624
301,2014/3/9,7:53:00,20-10.0200N,115-01.0600E,88,24.217,33.459
302,2014/3/9,7:54:00,20-10.0200N,115-01.2400E,88,24.211,33.4558
303,2014/3/9,7:55:00,20-10.0300N,115-01.4200E,89,24.211,33.4536
304,2014/3/9,7:56:00,20-10.0300N,115-01.6000E,90,24.21,33.4526
305,2014/3/9,7:57:00,20-10.0200N,115-01.7700E,92,24.208,33.4523
306,2014/3/9,7:58:00,20-10.0200N,115-01.9500E,90,24.207,33.4524
307,2014/3/9,7:59:00,20-10.0100N,115-02.1200E,92,24.209,33.4533
308,2014/3/9,8:00:00,20-10.0000N,115-02.3000E,92,24.213,33.4542
309,2014/3/9,8:01:00,20-10.0000N,115-02.4800E,93,24.219,33.4555
310,2014/3/9,8:02:00,20-09.9800N,115-02.6600E,94,24.22,33.4572
311,2014/3/9,8:03:00,20-09.9700N,115-02.8400E,93,24.218,33.4584
312,2014/3/9,8:04:00,20-09.9700N,115-03.0200E,92,24.216,33.4594
313,2014/3/9,8:05:00,20-09.9600N,115-03.1900E,93,24.215,33.4605
314,2014/3/9,8:06:00,20-09.9500N,115-03.3700E,93,24.213,33.4616
315,2014/3/9,8:07:00,20-09.9300N,115-03.5500E,92,24.21,33.463
316,2014/3/9,8:08:00,20-09.9200N,115-03.7300E,92,24.204,33.4644
317,2014/3/9,8:09:00,20-09.9200N,115-03.9100E,92,24.201,33.465
318,2014/3/9,8:10:00,20-09.9100N,115-04.0900E,91,24.195,33.4655
319,2014/3/9,8:11:00,20-09.9100N,115-04.2700E,91,24.196,33.4656
320,2014/3/9,8:12:00,20-09.9000N,115-04.4500E,92,24.194,33.4661
321,2014/3/9,8:13:00,20-09.9000N,115-04.6300E,88,24.193,33.4671
322,2014/3/9,8:14:00,20-09.9000N,115-04.8100E,91,24.191,33.4684
323,2014/3/9,8:15:00,20-09.9000N,115-04.9800E,89,24.187,33.4691
324,2014/3/9,8:16:00,20-09.9000N,115-05.1500E,92,24.185,33.47
325,2014/3/9,8:17:00,20-09.9000N,115-05.3200E,87,24.184,33.4713
326,2014/3/9,8:18:00,20-09.9000N,115-05.5000E,90,24.183,33.4726
327,2014/3/9,8:19:00,20-09.9000N,115-05.6900E,88,24.182,33.4733
328,2014/3/9,8:20:00,20-09.9000N,115-05.8800E,89,24.18,33.4736
329,2014/3/9,8:21:00,20-09.9100N,115-06.0600E,88,24.178,33.475
330,2014/3/9,8:22:00,20-09.9100N,115-06.2400E,87,24.176,33.476
331,2014/3/9,8:23:00,20-09.9100N,115-06.4200E,90,24.175,33.4761
332,2014/3/9,8:24:00,20-09.9100N,115-06.6000E,89,24.174,33.4772
333,2014/3/9,8:25:00,20-09.9100N,115-06.7900E,89,24.174,33.478
334,2014/3/9,8:26:00,20-09.9200N,115-06.9800E,88,24.174,33.4782
335,2014/3/9,8:27:00,20-09.9200N,115-07.1600E,87,24.172,33.478
336,2014/3/9,8:28:00,20-09.9200N,115-07.3400E,90,24.168,33.4781
337,2014/3/9,8:29:00,20-09.9200N,115-07.5100E,90,24.167,33.478
338,2014/3/9,8:30:00,20-09.9200N,115-07.6800E,89,24.165,33.4782
339,2014/3/9,8:31:00,20-09.9300N,115-07.8700E,89,24.163,33.4783
340,2014/3/9,8:32:00,20-09.9200N,115-08.0500E,89,24.161,33.4778
341,2014/3/9,8:33:00,20-09.9300N,115-08.2200E,90,24.159,33.4777
342,2014/3/9,8:34:00,20-09.9300N,115-08.4100E,87,24.156,33.4772
343,2014/3/9,8:35:00,20-09.9300N,115-08.5900E,88,24.157,33.4771
344,2014/3/9,8:36:00,20-09.9300N,115-08.7700E,90,24.157,33.4766
345,2014/3/9,8:37:00,20-09.9300N,115-08.9500E,90,24.156,33.477
346,2014/3/9,8:38:00,20-09.9300N,115-09.1400E,90,24.156,33.4768
347,2014/3/9,8:39:00,20-09.9300N,115-09.3200E,89,24.156,33.4761
348,2014/3/9,8:40:00,20-09.9200N,115-09.5100E,91,24.155,33.4761
349,2014/3/9,8:41:00,20-09.9200N,115-09.6800E,91,24.155,33.4754
350,2014/3/9,8:42:00,20-09.9200N,115-09.8600E,90,24.154,33.4753
351,2014/3/9,8:43:00,20-09.9200N,115-10.0400E,89,24.154,33.4748
352,2014/3/9,8:44:00,20-09.9200N,115-10.2200E,91,24.152,33.4749
353,2014/3/9,8:45:00,20-09.9100N,115-10.4000E,92,24.15,33.475
354,2014/3/9,8:46:00,20-09.9100N,115-10.5800E,90,24.151,33.4752
355,2014/3/9,8:47:00,20-09.9100N,115-10.7600E,92,24.151,33.475
356,2014/3/9,8:48:00,20-09.9000N,115-10.9500E,91,24.151,33.4752
357,2014/3/9,8:49:00,20-09.9000N,115-11.1300E,90,24.151,33.4748
358,2014/3/9,8:50:00,20-09.9000N,115-11.3200E,89,24.149,33.4754
359,2014/3/9,8:51:00,20-09.9000N,115-11.5000E,89,24.149,33.4759
360,2014/3/9,8:52:00,20-09.9000N,115-11.6900E,91,24.149,33.4752
361,2014/3/9,8:53:00,20-09.9000N,115-11.8600E,89,24.148,33.4759
362,2014/3/9,8:54:00,20-09.9000N,115-12.0400E,92,24.15,33.4756
363,2014/3/9,8:55:00,20-09.8900N,115-12.2200E,92,24.15,33.4751
364,2014/3/9,8:56:00,20-09.8900N,115-12.4000E,90,24.15,33.4753
365,2014/3/9,8:57:00,20-09.8800N,115-12.5800E,92,24.15,33.4755
366,2014/3/9,8:58:00,20-09.8700N,115-12.7600E,95,24.15,33.4751
367,2014/3/9,8:59:00,20-09.8700N,115-12.9500E,91,24.15,33.4753
368,2014/3/9,9:00:00,20-09.8600N,115-13.1300E,92,24.151,33.4762
369,2014/3/9,9:01:00,20-09.8600N,115-13.3100E,92,24.15,33.4763
370,2014/3/9,9:02:00,20-09.8500N,115-13.4800E,91,24.15,33.4767
371,2014/3/9,9:03:00,20-09.8500N,115-13.6600E,89,24.15,33.476
372,2014/3/9,9:04:00,20-09.8400N,115-13.8300E,92,24.151,33.4763
373,2014/3/9,9:05:00,20-09.8400N,115-14.0100E,91,24.153,33.4764
374,2014/3/9,9:06:00,20-09.8300N,115-14.1900E,91,24.153,33.4763
375,2014/3/9,9:07:00,20-09.8300N,115-14.3700E,90,24.153,33.4761
376,2014/3/9,9:08:00,20-09.8300N,115-14.5500E,90,24.152,33.4757
377,2014/3/9,9:09:00,20-09.8300N,115-14.7300E,87,24.152,33.4758
378,2014/3/9,9:10:00,20-09.8300N,115-14.9000E,89,24.152,33.4754
379,2014/3/9,9:11:00,20-09.8300N,115-15.0800E,88,24.154,33.4757
380,2014/3/9,9:12:00,20-09.8400N,115-15.2700E,88,24.155,33.4756
381,2014/3/9,9:13:00,20-09.8400N,115-15.4500E,89,24.155,33.4757
382,2014/3/9,9:14:00,20-09.8400N,115-15.6400E,88,24.156,33.4757
383,2014/3/9,9:15:00,20-09.8500N,115-15.8200E,88,24.156,33.4756
384,2014/3/9,9:16:00,20-09.8400N,115-16.0000E,91,24.157,33.4763
385,2014/3/9,9:17:00,20-09.8400N,115-16.2000E,90,24.158,33.4758
386,2014/3/9,9:18:00,20-09.8400N,115-16.3600E,88,24.158,33.476
387,2014/3/9,9:19:00,20-09.8500N,115-16.5400E,88,24.157,33.4767
388,2014/3/9,9:20:00,20-09.8500N,115-16.7300E,88,24.157,33.4769
389,2014/3/9,9:21:00,20-09.8500N,115-16.9100E,89,24.157,33.4774
390,2014/3/9,9:22:00,20-09.8600N,115-17.1000E,87,24.155,33.4777